Kissimmee, FL

8:40 PM EST on November 12, 2019 (GMT -0500)
Kissimmee Municipal

Weather History for KISM - August, 2019

Change the Weather History Date:

Thursday, August 1, 2019

  Actual Average Record
Temperature  
Mean Temperature 82 °F -  
Max Temperature 91 °F 91 °F 103 °F (1961)
Min Temperature 73 °F 72 °F 69 °F (1980)
Cooling Degree Days 17    
Growing Degree Days 32 (Base 50)    
Moisture  
Dew Point 73 °F    
Average Humidity 85    
Maximum Humidity 97    
Minimum Humidity 53    
Precipitation  
Precipitation 0.00 in - - ()
Sea Level Pressure  
Sea Level Pressure 30.05 in    
Wind  
Wind Speed 4 mph (East)    
Max Wind Speed 17 mph    
Max Gust Speed 25 mph    
Visibility 10 miles    
Events Rain , Thunderstorm    
Averages and records for this station are not official NWS values.
T = Trace of Precipitation, MM = Missing Value Source: NWS Daily Summary

Daily Weather History Graph

Daily Weather History Graph

Search for Another Location

Airport or City:

Astronomy

Aug. 01, 2019 Rise Set
Actual Time 6:47 AM EDT 8:16 PM EDT
Civil Twilight 6:22 AM EDT 8:41 PM EDT
Nautical Twilight 5:51 AM EDT 9:11 PM EDT
Astronomical Twilight 5:20 AM EDT 9:43 PM EDT
Moon 7:12 AM EDT (8/1) 9:03 PM EDT (8/1)
Length of Visible Light 14h 19m
Length of Day
13h 28m
New Moon, 0% of the Moon is Illuminated
Aug 1
New Moon
Aug 7
First Quarter
Aug 15
Full
Aug 23
Last Quarter
Aug 30
New

Hourly Weather History & Observations

Time (EDT) Temp. Heat Index Dew Point Humidity Pressure Visibility Wind Dir Wind Speed Gust Speed Precip Events Conditions
12:56 AM 75.9 °F - 73.9 °F 94% 30.04 in 10.0 mi Calm Calm - N/A   Clear
1:56 AM 77.0 °F - 73.0 °F 88% 30.04 in 10.0 mi Calm Calm - N/A   Clear
2:56 AM 75.9 °F - 73.0 °F 91% 30.02 in 10.0 mi East 3.5 mph - N/A   Clear
3:56 AM 77.0 °F - 72.0 °F 84% 30.03 in 10.0 mi Calm Calm - N/A   Clear
4:56 AM 75.9 °F - 73.9 °F 94% 30.04 in 10.0 mi Calm Calm - N/A   Clear
5:56 AM 77.0 °F - 73.9 °F 90% 30.04 in 10.0 mi North 4.6 mph - N/A   Clear
6:56 AM 75.9 °F - 73.9 °F 94% 30.05 in 10.0 mi North 3.5 mph - N/A   Clear
7:56 AM 77.0 °F - 73.9 °F 90% 30.07 in 10.0 mi North 3.5 mph - N/A   Clear
8:56 AM 80.1 °F 85.1 °F 75.0 °F 85% 30.08 in 10.0 mi ENE 4.6 mph - N/A   Mostly Cloudy
9:56 AM 79.0 °F - 72.0 °F 79% 30.08 in 10.0 mi ESE 4.6 mph - N/A   Scattered Clouds
10:56 AM 84.0 °F 89.0 °F 71.1 °F 65% 30.07 in 10.0 mi Variable 3.5 mph - N/A   Clear
11:56 AM 86.0 °F 93.8 °F 73.9 °F 67% 30.08 in 10.0 mi ENE 9.2 mph - N/A   Clear
12:56 PM 87.1 °F 96.3 °F 75.0 °F 67% 30.06 in 10.0 mi Variable 3.5 mph - N/A   Clear
1:56 PM 91.0 °F 98.2 °F 72.0 °F 53% 30.06 in 10.0 mi East 10.4 mph - N/A   Clear
2:56 PM 80.1 °F 83.8 °F 72.0 °F 76% 30.04 in 10.0 mi SSE 17.3 mph 25.3 mph N/A Thunderstorm Clear
3:10 PM 78.8 °F - 71.6 °F 78% 30.03 in 10.0 mi SSE 15.0 mph - N/A   Mostly Cloudy
3:56 PM 78.1 °F - 73.9 °F 87% 30.02 in 10.0 mi SE 10.4 mph - N/A Rain Light Rain
4:56 PM 78.1 °F - 73.9 °F 87% 30.06 in 10.0 mi SSE 8.1 mph - N/A   Clear
5:56 PM 79.0 °F - 73.9 °F 84% 30.05 in 10.0 mi NW 6.9 mph - N/A   Clear
6:56 PM 80.1 °F 84.2 °F 73.0 °F 79% 30.06 in 10.0 mi NE 3.5 mph - N/A   Clear
7:52 PM 75.2 °F - 73.4 °F 94% 30.03 in 10.0 mi Calm Calm - N/A Rain Light Rain
7:56 PM 75.0 °F - 73.0 °F 94% 30.04 in 10.0 mi Variable 3.5 mph - N/A Rain Light Rain
8:05 PM 75.2 °F - 73.4 °F 94% 30.03 in 10.0 mi ENE 4.6 mph - N/A Rain Light Rain
8:56 PM 75.0 °F - 73.0 °F 94% 30.03 in 10.0 mi ENE 8.1 mph - N/A Rain Light Rain
9:37 PM 75.2 °F - 73.4 °F 94% 30.03 in 10.0 mi East 6.9 mph - N/A Rain Light Rain
9:56 PM 73.9 °F - 73.0 °F 97% 30.04 in 10.0 mi East 8.1 mph - N/A Rain Light Rain
10:56 PM 75.0 °F - 73.0 °F 94% 30.03 in 10.0 mi ESE 10.4 mph - N/A   Clear
11:56 PM 75.0 °F - 73.0 °F 94% 30.03 in 10.0 mi SE 4.6 mph - N/A   Clear